When you browse on this site, cookies collect data to enhance your experience and personalize the content and advertising you see.
Visit our Privacy Policy to learn more. By continuing to use the site, you agree to this use of cookies and data.
  • In Portugal
  • List of Countries
  • For 7 days
  • Water Temperature
  • Satellite Maps
  • Weather Map
  • Weather Widgets
  • user-avatar
    Login

    Hourly Weather Kranevo

    Today, 17 November, Saturday

    Time Temperature Precipitation Wind Pressure Humidity
    00:00 -2°C° 0.1 mm 7 mps 766 mmHg 84%
    01:00 -2°C° 0.1 mm 7 mps 766 mmHg 84%
    02:00 -3°C° 0 mm 7 mps 767 mmHg 82%
    03:00 -3°C° 0.1 mm 6 mps 767 mmHg 83%
    04:00 -3°C° 0.1 mm 6 mps 767 mmHg 85%
    05:00 -2°C° 0.1 mm 5 mps 767 mmHg 86%
    06:00 -3°C° 0.1 mm 6 mps 767 mmHg 87%
    07:00 -2°C° 0.1 mm 6 mps 767 mmHg 88%
    08:00 -2°C° 0 mm 7 mps 767 mmHg 88%
    09:00 -2°C° 0.1 mm 7 mps 767 mmHg 86%
    10:00 -1°C° 0.1 mm 7 mps 767 mmHg 85%
    11:00 -1°C° 0.1 mm 7 mps 767 mmHg 83%
    12:00 0°C° 0 mm 7 mps 767 mmHg 83%
    13:00 0°C° 0 mm 7 mps 767 mmHg 83%
    14:00 0°C° 0 mm 7 mps 767 mmHg 83%
    15:00 0°C° 0.1 mm 7 mps 767 mmHg 84%
    16:00 0°C° 0.1 mm 8 mps 767 mmHg 85%
    17:00 0°C° 0.1 mm 8 mps 766 mmHg 86%
    18:00 0°C° 0.1 mm 8 mps 767 mmHg 86%
    19:00 0°C° 0.1 mm 8 mps 767 mmHg 87%
    20:00 0°C° 0.1 mm 8 mps 767 mmHg 87%
    21:00 0°C° 0.2 mm 7 mps 767 mmHg 87%
    22:00 0°C° 0.2 mm 7 mps 766 mmHg 88%
    23:00 0°C° 0.2 mm 7 mps 766 mmHg 88%

    Tomorrow, 18 November, Sunday

    Time Temperature Precipitation Wind Pressure Humidity
    00:00 0°C° 0.1 mm 7 mps 766 mmHg 88%
    01:00 0°C° 0.1 mm 7 mps 766 mmHg 88%
    02:00 0°C° 0.1 mm 7 mps 766 mmHg 88%
    03:00 0°C° 0.1 mm 7 mps 766 mmHg 88%
    04:00 0°C° 0.1 mm 7 mps 765 mmHg 89%
    05:00 0°C° 0.1 mm 7 mps 765 mmHg 89%
    06:00 0°C° 0 mm 7 mps 765 mmHg 88%
    07:00 0°C° 0 mm 7 mps 765 mmHg 88%
    08:00 +1°C° 0 mm 6 mps 765 mmHg 88%
    09:00 +2°C° 0 mm 6 mps 765 mmHg 86%
    10:00 +3°C° 0 mm 6 mps 765 mmHg 83%
    11:00 +5°C° 0 mm 5 mps 764 mmHg 81%
    12:00 +5°C° 0 mm 6 mps 764 mmHg 80%
    13:00 +5°C° 0 mm 6 mps 763 mmHg 79%
    14:00 +7°C° 0 mm 6 mps 762 mmHg 79%
    15:00 +5°C° 0 mm 6 mps 762 mmHg 80%
    16:00 +5°C° 0 mm 6 mps 761 mmHg 82%
    17:00 +6°C° 0 mm 5 mps 761 mmHg 84%
    18:00 +5°C° 0.1 mm 6 mps 760 mmHg 84%
    19:00 +5°C° 0.1 mm 6 mps 760 mmHg 84%
    20:00 +5°C° 0.1 mm 7 mps 759 mmHg 84%
    21:00 +5°C° 0.4 mm 7 mps 759 mmHg 84%
    22:00 +5°C° 0.4 mm 7 mps 758 mmHg 85%
    23:00 +5°C° 0.4 mm 7 mps 758 mmHg 85%

    Day after tomorrow, 19 November, Monday

    Time Temperature Precipitation Wind Pressure Humidity
    00:00 +5°C° 1 mm 7 mps 757 mmHg 86%
    01:00 +6°C° 1 mm 8 mps 757 mmHg 88%
    02:00 +6°C° 1 mm 8 mps 756 mmHg 89%
    03:00 +6°C° 1.4 mm 9 mps 755 mmHg 89%
    04:00 +6°C° 1.4 mm 9 mps 754 mmHg 90%
    05:00 +6°C° 1.4 mm 10 mps 753 mmHg 91%
    06:00 +7°C° 3.3 mm 9 mps 753 mmHg 91%
    07:00 +7°C° 3.3 mm 8 mps 753 mmHg 92%
    08:00 +8°C° 3.3 mm 7 mps 752 mmHg 92%
    09:00 +8°C° 0.6 mm 7 mps 752 mmHg 93%
    10:00 +9°C° 0.6 mm 6 mps 752 mmHg 94%
    11:00 +9°C° 0.6 mm 5 mps 752 mmHg 94%
    12:00 +9°C° 0.1 mm 6 mps 753 mmHg 91%
    13:00 +7°C° 0.1 mm 8 mps 753 mmHg 88%
    14:00 +6°C° 0.1 mm 9 mps 753 mmHg 85%
    15:00 +5°C° 0 mm 9 mps 754 mmHg 85%
    16:00 +3°C° 0 mm 9 mps 754 mmHg 84%
    17:00 +1°C° 0 mm 9 mps 755 mmHg 84%
    18:00 +1°C° 0 mm 8 mps 756 mmHg 84%
    19:00 +1°C° 0 mm 8 mps 757 mmHg 84%
    20:00 0°C° 0 mm 8 mps 758 mmHg 84%
    21:00 0°C° 0 mm 7 mps 759 mmHg 84%
    22:00 0°C° 0 mm 7 mps 760 mmHg 84%
    23:00 0°C° 0 mm 7 mps 761 mmHg 84%

    20 November, Tuesday

    Time Temperature Precipitation Wind Pressure Humidity
    00:00 +1°C° 0 mm 6 mps 761 mmHg 85%
    01:00 0°C° 0 mm 5 mps 761 mmHg 86%
    02:00 0°C° 0 mm 5 mps 762 mmHg 87%
    03:00 0°C° 0 mm 4 mps 762 mmHg 88%
    04:00 -1°C° 0 mm 4 mps 762 mmHg 88%
    05:00 0°C° 0 mm 3 mps 762 mmHg 88%
    06:00 0°C° 0 mm 3 mps 762 mmHg 86%
    07:00 0°C° 0 mm 3 mps 763 mmHg 85%
    08:00 +1°C° 0 mm 2 mps 763 mmHg 83%
    09:00 +3°C° 0 mm 2 mps 763 mmHg 77%
    10:00 +4°C° 0 mm 2 mps 763 mmHg 72%
    11:00 +6°C° 0 mm 2 mps 763 mmHg 67%
    12:00 +5°C° 0 mm 3 mps 763 mmHg 68%
    13:00 +7°C° 0 mm 3 mps 762 mmHg 69%
    14:00 +8°C° 0 mm 3 mps 762 mmHg 70%
    15:00 +7°C° 0 mm 3 mps 761 mmHg 75%
    16:00 +6°C° 0 mm 4 mps 761 mmHg 80%
    17:00 +6°C° 0 mm 4 mps 761 mmHg 85%
    18:00 +6°C° 0 mm 4 mps 761 mmHg 86%
    19:00 +7°C° 0 mm 4 mps 761 mmHg 87%
    20:00 +7°C° 0 mm 5 mps 760 mmHg 88%
    21:00 +7°C° 0.1 mm 5 mps 760 mmHg 89%
    22:00 +8°C° 0.1 mm 5 mps 760 mmHg 91%
    23:00 +8°C° 0.1 mm 5 mps 759 mmHg 92%

    21 November, Wednesday

    Time Temperature Precipitation Wind Pressure Humidity
    00:00 +8°C° 0.4 mm 5 mps 759 mmHg 93%
    01:00 +9°C° 0.4 mm 5 mps 758 mmHg 94%
    02:00 +9°C° 0.4 mm 6 mps 757 mmHg 94%
    03:00 +9°C° 0.4 mm 6 mps 757 mmHg 95%
    04:00 +10°C° 0.4 mm 6 mps 756 mmHg 95%
    05:00 +10°C° 0.4 mm 6 mps 756 mmHg 96%
    06:00 +10°C° 1.3 mm 5 mps 756 mmHg 96%
    07:00 +12°C° 1.3 mm 5 mps 755 mmHg 96%
    08:00 +12°C° 1.3 mm 5 mps 755 mmHg 97%
    09:00 +12°C° 1.3 mm 5 mps 755 mmHg 96%
    10:00 +13°C° 1.3 mm 4 mps 754 mmHg 96%
    11:00 +13°C° 1.3 mm 4 mps 754 mmHg 96%
    12:00 +13°C° 1.3 mm 4 mps 754 mmHg 96%
    13:00 +13°C° 1.3 mm 4 mps 753 mmHg 96%
    14:00 +13°C° 1.3 mm 3 mps 753 mmHg 97%
    15:00 +12°C° 0.9 mm 4 mps 753 mmHg 95%
    16:00 +12°C° 0.9 mm 4 mps 753 mmHg 94%
    17:00 +11°C° 0.9 mm 4 mps 754 mmHg 93%
    18:00 +10°C° 0.1 mm 5 mps 754 mmHg 92%
    19:00 +9°C° 0.1 mm 6 mps 754 mmHg 90%
    20:00 +9°C° 0.1 mm 7 mps 755 mmHg 89%
    21:00 +9°C° 0.1 mm 7 mps 755 mmHg 90%
    22:00 +9°C° 0.1 mm 7 mps 755 mmHg 90%
    23:00 +9°C° 0.1 mm 7 mps 756 mmHg 91%

    22 November, Thursday

    Time Temperature Precipitation Wind Pressure Humidity
    00:00 +9°C° 0.4 mm 8 mps 756 mmHg 91%
    01:00 +7°C° 0.4 mm 8 mps 756 mmHg 91%
    02:00 +7°C° 0.4 mm 8 mps 757 mmHg 90%
    03:00 +7°C° 0.5 mm 8 mps 757 mmHg 90%
    04:00 +6°C° 0.5 mm 9 mps 758 mmHg 90%
    05:00 +6°C° 0.5 mm 9 mps 758 mmHg 89%
    06:00 +6°C° 0.2 mm 8 mps 759 mmHg 89%
    07:00 +6°C° 0.2 mm 8 mps 759 mmHg 88%
    08:00 +5°C° 0.2 mm 7 mps 760 mmHg 88%
    09:00 +6°C° 0.1 mm 7 mps 760 mmHg 86%
    10:00 +7°C° 0.1 mm 6 mps 761 mmHg 84%
    11:00 +7°C° 0.1 mm 6 mps 761 mmHg 82%
    12:00 +7°C° 0 mm 6 mps 761 mmHg 80%
    13:00 +8°C° 0 mm 6 mps 761 mmHg 78%
    14:00 +8°C° 0 mm 6 mps 761 mmHg 76%
    15:00 +8°C° 0 mm 5 mps 762 mmHg 77%
    16:00 +7°C° 0 mm 5 mps 762 mmHg 78%
    17:00 +7°C° 0 mm 5 mps 762 mmHg 79%
    18:00 +7°C° 0 mm 5 mps 763 mmHg 79%
    19:00 +6°C° 0 mm 5 mps 763 mmHg 80%
    20:00 +6°C° 0 mm 4 mps 764 mmHg 81%
    21:00 +6°C° 0 mm 4 mps 764 mmHg 82%
    22:00 +5°C° 0 mm 4 mps 764 mmHg 84%
    23:00 +5°C° 0 mm 4 mps 764 mmHg 85%
    Show more